Vertical_Velocity
-1 3 3 -0 5 -1 -0 0 0 -0 2 -1 0 -3 -3 -0 -3 1 -0 0 3 -3 -1 0 0 1 2 2 -2 -1 -1 2 1 -1 0 -1 -1 1 0 -1 -1 0 -3 -1 -1 -1 -2 -2 -2
1 -1 4 -1 -1 -1 1 -1 0 -1 1 1 -0 -1 0 2 -1 -1 -0 -1 7 -0 -3 -1 -1 1 1 -0 0 -1 -0 2 -0 0 -1 -1 -1 -1 -1 -0 -0 -4 -2 -1 -2 -2 -1 -1 -2
2 1 1 -2 -1 -1 -1 -1 -0 1 -1 0 1 -0 0 0 -1 0 0 -3 -2 1 -1 -2 -1 -0 0 2 -0 -3 -1 1 -2 0 -0 -1 -0 -1 0 0 -2 1 -0 -1 1 0 -1 -1 -0
-0 -1 -3 1 -0 -1 -1 -1 -0 2 2 1 -0 1 -1 0 0 -2 -3 -1 -2 1 -0 1 0 -1 -1 2 -1 -0 -1 -2 -0 0 -1 1 -1 -1 -1 0 0 -1 -1 -2 -1 -1 -1 0 -0
0 -2 -1 -0 -1 -1 -0 -1 0 0 0 0 -1 2 -0 1 -1 -0 -2 -1 -3 -0 1 0 1 1 -2 -0 1 1 2 -1 -1 1 -2 -2 0 0 -2 -1 -2 -2 -3 -2 -2 -1 -2 -2 -2
1 -1 -1 -0 -0 -1 -1 0 0 0 0 1 -1 -1 -1 -2 -1 0 2 -0 0 -0 -0 0 1 2 1 -2 -1 0 2 3 1 0 0 -2 -1 1 1 1 0 0 0 -1 -3 -3 -3 -2 -2
-0 -1 -0 -0 -1 -1 1 0 0 -1 0 -0 -1 -1 -1 -2 -2 1 2 1 2 1 1 0 2 -0 1 3 -1 -1 0 1 2 3 3 1 -1 -2 -3 -1 1 0 0 -0 -0 0 -1 -2 -1
0 -2 0 -0 0 0 -1 -0 0 1 -1 -1 -0 -2 0 -6 -3 -1 -0 5 2 2 3 1 -3 2 -1 -3 2 3 1 -1 -1 2 2 2 4 4 -1 -2 -1 -0 -1 -0 1 1 1 0 -0
-2 -1 -0 -1 -0 -1 -1 -0 2 -2 1 -0 1 -1 1 1 -2 -2 -3 -2 1 -0 1 -2 -2 1 2 2 -4 -1 3 3 3 1 -0 1 1 2 2 3 1 -1 -0 -0 -0 1 1 1 -0
-2 0 -2 -1 -0 0 -0 1 2 3 1 2 1 -2 1 2 1 -2 -4 -2 -5 -3 -0 3 3 -3 -0 2 3 -1 -3 -4 -3 -0 0 -2 -1 -2 0 0 4 3 1 -1 -2 -2 -1 1 2
0 -2 -1 -1 1 -1 1 -2 1 -0 0 -2 -1 -2 -2 -1 1 -1 -2 1 9 3 -1 -2 0 3 4 0 2 2 1 2 -0 -3 -2 0 0 -0 -2 -2 -2 -0 1 3 0 -2 -2 -2 -2
2 -1 -0 -1 1 0 -0 -1 -2 1 0 1 2 3 0 -2 -5 -4 -4 -4 -3 0 3 0 -1 -2 -4 1 1 2 0 -1 -2 2 3 -2 -3 -1 -2 1 1 -1 -1 0 2 1 0 -1 -0
1 -0 1 0 -1 0 0 -0 -1 -6 0 2 0 -1 1 -0 0 4 3 2 2 -3 -0 2 0 1 0 -2 -3 0 -0 -0 0 -1 0 2 3 1 0 -1 1 1 0 -1 -0 1 0 -0 0
-1 -0 -2 -3 1 -2 1 -1 1 -3 0 -1 -2 -2 -1 1 7 1 -4 -2 -5 3 2 0 -1 2 6 -2 -1 1 0 -0 -2 0 -1 -0 0 2 2 1 0 -0 1 2 1 1 2 1 -1
2 -0 -1 -0 -1 -2 1 3 -2 5 0 0 3 -2 0 0 -1 -8 9 -2 12 9 3 2 2 -1 -1 3 7 1 0 2 1 2 2 4 3 0 2 2 0 2 1 0 0 -1 0 1 0
-1 -1 -1 -1 0 -1 5 -10 -3 -1 2 1 0 1 -2 -1 0 3 -0 -1 -1 -1 -1 3 3 2 0 0 0 3 1 0 4 4 2 0 1 3 3 3 0 1 0 1 1 2 -1 0 2
-2 -0 1 -2 0 0 5 -3 -0 -1 -2 -2 -3 -2 -1 -0 -4 0 -1 -2 1 2 -2 1 1 -1 4 0 1 -2 2 5 2 0 -0 4 3 2 1 1 1 4 3 1 1 -1 3 1 1
-1 1 1 -0 0 -2 -1 -4 -5 -3 4 -1 -4 -6 -4 -4 -4 -1 1 -1 4 3 7 2 -2 -2 4 3 4 4 -2 2 1 -0 -1 -4 -4 2 2 -0 -0 1 2 3 -2 -0 1 3 3
1 2 1 -0 -1 4 -1 -1 -5 -9 1 -1 1 -1 -6 -6 -5 -0 4 7 3 0 -0 -2 9 11 -1 -2 -5 -1 -8 -2 -4 2 1 2 6 4 -1 1 3 2 1 0 5 1 2 3 2
2 1 -6 -3 -0 3 -1 -11 -5 -1 -6 2 0 1 1 -1 -2 5 5 2 4 2 1 4 -1 7 6 7 21 5 8 1 8 -3 -3 -1 -1 -0 1 -1 4 1 0 4 2 1 -1 -1 3
-1 0 -1 -0 -1 -1 4 -8 -5 -1 0 -1 0 -2 -1 3 0 1 -0 1 1 1 2 5 5 6 3 8 6 3 5 -1 -7 -0 6 7 4 3 3 5 -2 2 3 -2 -0 2 -2 -2 1
3 -1 1 1 3 -0 2 -15 -6 -3 -3 0 -3 -2 5 -0 5 2 -0 -4 -2 -2 1 -2 3 4 2 2 -2 -6 3 -6 3 -4 2 -4 -4 1 7 9 2 -1 1 -1 2 6 6 2 -1
-5 -0 -2 -1 0 4 1 8 -12 1 -5 -5 -1 4 2 3 -1 -0 2 1 0 -3 -1 3 2 4 7 3 3 -1 -4 -4 9 -6 -2 -4 2 2 2 3 3 1 -4 3 3 -1 -10 6 1
0 -1 -0 0 1 6 -6 3 -27 -0 -1 -0 2 -1 -0 1 1 2 1 2 1 -2 -6 -6 0 4 3 2 1 3 -1 4 2 1 -7 1 0 5 -2 -1 -0 3 3 -1 3 1 2 7 -1
0 -1 1 4 5 -2 0 9 -19 -1 -1 3 2 2 2 4 1 -1 -5 -2 0 -1 -1 -4 -4 -4 5 2 4 5 2 4 1 7 1 10 1 -7 2 7 -1 -8 4 4 2 -3 3 -0 4
-2 -2 -3 -2 -1 -1 1 -5 -10 0 2 2 1 4 4 -4 -4 -1 4 -2 -4 -4 -2 -0 -0 -6 -6 4 2 4 3 4 -1 4 2 -1 -0 2 5 4 -2 7 5 3 3 4 5 5 6
3 2 -3 1 0 5 -4 -11 -9 -2 -1 -1 0 -2 -1 -3 -5 -7 -7 2 -6 -7 -0 -2 1 3 -2 -2 -2 -1 2 3 -3 3 4 1 4 5 6 2 -5 5 2 4 -4 3 -5 -8 15
-1 1 2 0 1 0 -1 -2 -11 -3 2 0 -3 -1 -3 -3 -8 -7 -3 -4 3 1 -4 -2 -2 0 2 -1 1 -4 -5 -3 1 7 2 0 4 4 4 3 -5 7 2 6 6 2 6 -3 2
-5 -0 -0 0 -1 0 0 -10 -1 0 2 2 0 2 0 -5 -6 -4 -3 1 -2 1 2 -3 -2 -1 -6 -2 1 0 -3 1 0 0 6 2 7 2 3 3 3 6 4 6 6 4 2 1 -2
-0 -1 -0 2 -2 0 2 -23 0 -1 1 4 -1 -1 -5 -1 -4 -5 -0 -2 -5 -2 -3 0 -3 -2 3 2 0 -3 -2 2 2 -0 3 6 10 2 1 1 2 4 4 3 2 1 1 -1 2
Height
1521 1521 1520 1520 1525 1524 1526 1522 1521 1517 1517 1516 1518 1520 1519 1520 1521 1526 1520 1522 1527 1532 1535 1539 1543 1545 1548 1550 1551 1553 1554 1556 1557 1558 1560 1561 1562 1562 1563 1564 1565 1566 1566 1567 1567 1568 1569 1570 1570
1521 1521 1520 1518 1522 1524 1523 1517 1515 1514 1515 1516 1518 1519 1520 1519 1520 1520 1520 1523 1529 1532 1535 1539 1542 1546 1548 1551 1552 1554 1555 1557 1558 1559 1560 1561 1563 1563 1564 1565 1566 1567 1567 1568 1568 1569 1570 1571 1571
1521 1520 1521 1520 1526 1522 1520 1514 1512 1512 1513 1515 1518 1518 1519 1520 1519 1519 1520 1523 1528 1533 1536 1539 1542 1545 1548 1550 1552 1554 1555 1557 1558 1560 1561 1563 1564 1565 1565 1566 1567 1567 1568 1568 1569 1569 1570 1571 1572
1521 1522 1523 1520 1519 1516 1516 1512 1512 1511 1513 1513 1514 1517 1519 1518 1518 1519 1522 1526 1529 1533 1536 1539 1541 1545 1549 1550 1552 1554 1555 1557 1558 1560 1561 1563 1565 1566 1567 1567 1568 1568 1568 1569 1570 1570 1571 1572 1572
1520 1520 1522 1523 1522 1517 1514 1513 1512 1510 1510 1512 1513 1516 1519 1518 1519 1521 1522 1525 1529 1532 1536 1539 1541 1545 1548 1551 1553 1554 1555 1557 1559 1560 1561 1563 1564 1566 1567 1568 1568 1569 1569 1570 1570 1571 1571 1572 1572
1520 1521 1523 1522 1521 1515 1512 1512 1511 1511 1512 1513 1513 1515 1519 1519 1520 1521 1523 1526 1529 1532 1535 1538 1541 1544 1547 1550 1553 1555 1556 1557 1558 1559 1560 1562 1563 1565 1566 1567 1568 1569 1569 1570 1570 1571 1571 1571 1572
1519 1520 1524 1525 1522 1517 1512 1509 1509 1509 1510 1512 1512 1514 1517 1518 1519 1521 1524 1526 1529 1531 1534 1537 1539 1543 1547 1549 1551 1554 1556 1558 1559 1560 1560 1561 1562 1563 1565 1566 1568 1568 1569 1569 1570 1571 1571 1572 1571
1520 1521 1526 1525 1522 1517 1512 1509 1507 1508 1509 1510 1513 1513 1513 1515 1517 1521 1524 1526 1528 1530 1533 1535 1538 1541 1543 1547 1551 1553 1555 1557 1558 1560 1560 1561 1562 1563 1564 1565 1567 1567 1568 1569 1569 1570 1571 1571 1571
1520 1522 1524 1524 1523 1516 1513 1512 1509 1508 1508 1509 1510 1512 1512 1513 1516 1519 1522 1525 1526 1528 1530 1533 1536 1539 1542 1544 1548 1551 1554 1555 1557 1558 1559 1561 1562 1563 1563 1564 1565 1566 1567 1568 1568 1569 1570 1570 1570
1520 1523 1520 1520 1519 1518 1515 1514 1512 1509 1509 1510 1509 1510 1511 1512 1514 1515 1517 1519 1521 1524 1526 1529 1532 1535 1539 1542 1544 1547 1550 1552 1554 1556 1557 1558 1560 1562 1563 1564 1565 1565 1565 1566 1567 1568 1569 1569 1569
1518 1518 1518 1517 1517 1517 1516 1512 1511 1509 1508 1508 1508 1507 1509 1512 1513 1514 1516 1518 1519 1522 1524 1527 1530 1533 1536 1538 1541 1544 1546 1548 1550 1552 1554 1556 1557 1559 1560 1562 1563 1564 1564 1564 1565 1566 1567 1568 1568
1518 1515 1516 1516 1516 1515 1516 1514 1511 1509 1508 1507 1507 1508 1508 1509 1511 1512 1513 1515 1518 1520 1522 1524 1527 1530 1534 1537 1538 1541 1543 1545 1547 1548 1550 1551 1554 1556 1557 1559 1560 1561 1562 1562 1563 1563 1564 1565 1566
1515 1515 1515 1515 1515 1513 1513 1514 1514 1508 1507 1506 1506 1507 1508 1509 1511 1512 1514 1516 1517 1517 1520 1522 1525 1527 1530 1533 1535 1538 1539 1541 1544 1545 1547 1548 1550 1552 1553 1555 1557 1558 1559 1560 1561 1561 1562 1563 1564
1514 1513 1514 1513 1513 1512 1511 1511 1511 1509 1505 1507 1507 1508 1508 1509 1510 1512 1512 1513 1514 1516 1517 1519 1522 1525 1527 1528 1530 1533 1536 1538 1540 1541 1543 1545 1547 1548 1550 1551 1553 1555 1557 1558 1559 1560 1560 1560 1561
1512 1512 1512 1511 1511 1508 1508 1509 1506 1503 1505 1505 1505 1507 1507 1507 1509 1509 1510 1512 1513 1514 1516 1516 1518 1521 1523 1525 1527 1528 1531 1533 1535 1536 1539 1540 1542 1545 1546 1548 1550 1552 1554 1555 1556 1556 1557 1558 1558
1514 1516 1515 1508 1509 1507 1507 1504 1501 1501 1503 1505 1506 1505 1506 1507 1506 1506 1508 1509 1510 1512 1512 1514 1515 1516 1518 1519 1521 1524 1525 1527 1529 1531 1534 1536 1538 1541 1543 1543 1545 1548 1550 1551 1552 1553 1554 1555 1555
1519 1517 1517 1511 1507 1508 1507 1505 1501 1502 1503 1505 1505 1505 1504 1504 1505 1504 1504 1504 1505 1505 1507 1508 1511 1511 1512 1514 1515 1518 1520 1521 1523 1526 1528 1531 1533 1535 1537 1539 1542 1544 1544 1545 1547 1548 1550 1551 1552
1520 1520 1517 1513 1511 1508 1509 1506 1501 1500 1501 1503 1504 1502 1503 1501 1498 1501 1500 1499 1499 1499 1499 1500 1502 1504 1506 1508 1510 1511 1513 1514 1517 1517 1521 1524 1526 1528 1530 1532 1534 1538 1539 1540 1541 1543 1545 1546 1547
1512 1513 1514 1514 1511 1511 1507 1501 1502 1498 1495 1495 1496 1497 1498 1497 1495 1494 1495 1495 1493 1492 1491 1490 1491 1493 1498 1498 1500 1502 1501 1505 1508 1509 1511 1514 1516 1518 1522 1525 1528 1530 1531 1534 1535 1537 1539 1540 1542
1510 1513 1512 1511 1509 1509 1506 1493 1493 1495 1489 1489 1491 1492 1492 1491 1492 1491 1491 1490 1489 1486 1483 1481 1482 1485 1488 1490 1492 1496 1497 1498 1500 1502 1503 1505 1508 1511 1513 1515 1518 1522 1525 1527 1528 1529 1532 1535 1537
1507 1509 1508 1512 1509 1506 1506 1489 1479 1487 1488 1487 1489 1489 1488 1488 1489 1489 1487 1487 1485 1482 1479 1477 1475 1478 1480 1484 1487 1489 1490 1490 1491 1489 1492 1493 1498 1501 1503 1505 1509 1513 1516 1517 1521 1522 1524 1528 1531
1510 1504 1506 1509 1515 1513 1505 1495 1477 1480 1482 1485 1485 1484 1485 1486 1487 1487 1484 1482 1481 1479 1476 1473 1472 1471 1472 1474 1477 1479 1480 1481 1480 1483 1484 1486 1488 1492 1495 1497 1499 1502 1507 1509 1511 1515 1518 1520 1522
1504 1503 1504 1506 1510 1513 1506 1514 1465 1478 1477 1477 1482 1485 1486 1485 1484 1483 1482 1479 1479 1477 1474 1472 1469 1467 1467 1465 1466 1469 1470 1470 1471 1472 1473 1473 1476 1480 1485 1488 1490 1493 1495 1499 1501 1505 1510 1512 1515
1504 1504 1507 1508 1510 1513 1501 1508 1449 1473 1474 1480 1482 1485 1484 1483 1481 1480 1480 1478 1475 1473 1471 1469 1467 1465 1462 1461 1459 1459 1457 1458 1460 1459 1459 1461 1463 1464 1469 1474 1478 1483 1486 1488 1490 1497 1500 1504 1506
1504 1506 1515 1521 1521 1507 1493 1499 1464 1468 1473 1479 1484 1484 1484 1482 1480 1479 1476 1474 1472 1469 1467 1465 1463 1461 1459 1456 1454 1452 1449 1449 1448 1450 1450 1450 1450 1450 1452 1459 1466 1471 1475 1478 1483 1489 1493 1497 1498
1502 1505 1513 1518 1511 1505 1502 1491 1469 1472 1476 1479 1483 1485 1481 1478 1478 1477 1474 1473 1470 1466 1463 1461 1459 1456 1454 1451 1448 1445 1443 1440 1438 1439 1439 1438 1439 1439 1443 1447 1456 1460 1463 1469 1475 1481 1484 1488 1489
1503 1505 1503 1512 1518 1514 1497 1479 1468 1467 1476 1480 1482 1481 1480 1478 1479 1475 1472 1469 1467 1464 1460 1457 1454 1451 1448 1444 1441 1437 1434 1431 1427 1427 1428 1427 1429 1433 1433 1436 1446 1449 1453 1459 1465 1469 1472 1477 1478
1499 1503 1510 1514 1519 1514 1493 1488 1473 1469 1478 1481 1480 1479 1478 1477 1474 1471 1469 1466 1463 1461 1457 1453 1450 1445 1440 1436 1433 1428 1425 1421 1417 1417 1415 1417 1419 1423 1425 1426 1435 1438 1443 1449 1455 1460 1465 1469 1473
1507 1507 1508 1509 1512 1511 1504 1476 1470 1475 1481 1482 1481 1480 1479 1476 1472 1469 1464 1460 1458 1455 1452 1448 1445 1440 1435 1430 1423 1418 1413 1409 1406 1404 1406 1408 1410 1411 1414 1419 1425 1428 1433 1438 1446 1452 1458 1460 1463
1510 1511 1510 1512 1513 1515 1513 1477 1472 1478 1479 1479 1479 1477 1477 1475 1470 1465 1462 1457 1454 1451 1448 1443 1438 1433 1428 1423 1417 1410 1403 1399 1395 1394 1397 1401 1401 1401 1406 1413 1417 1420 1424 1430 1436 1440 1446 1452 1457